| time (UTC) | temp F | wind direction | speed knots | gust knots | rain 1hr in | rain 24hr in | rain mn in | humidity % | barometer mb |
| 20260506192118 | 49 | 0 | 0.0 | 0.0 | 0.00 | 0.47 | 0.39 | 84 | 1009.5 |
| 20260506185834 | 50 | 0 | 0.0 | 0.0 | 0.00 | 0.48 | 0.39 | 85 | 1009.2 |
| 20260506183003 | 51 | 0 | 0.0 | 0.0 | 0.00 | 0.50 | 0.39 | 84 | 1008.9 |
| 20260506181910 | 52 | 0 | 0.0 | 0.0 | 0.00 | 0.50 | 0.39 | 83 | 1008.7 |
| 20260506180535 | 52 | 0 | 0.0 | 0.0 | 0.00 | 0.51 | 0.39 | 89 | 1008.6 |
| 20260506175257 | 52 | 0 | 0.0 | 0.0 | 0.00 | 0.51 | 0.39 | 87 | 1008.4 |
| 20260506174142 | 52 | 0 | 0.0 | 0.0 | 0.00 | 0.52 | 0.39 | 87 | 1008.2 |
| 20260506172059 | 52 | 0 | 0.0 | 0.0 | 0.00 | 0.54 | 0.39 | 86 | 1008.1 |
| 20260506170318 | 52 | 0 | 0.0 | 0.0 | 0.00 | 0.54 | 0.39 | 85 | 1008.0 |
| 20260506165203 | 52 | 0 | 0.0 | 0.0 | 0.00 | 0.54 | 0.39 | 85 | 1007.9 |
| 20260506164221 | 52 | 0 | 0.0 | 0.0 | 0.00 | 0.54 | 0.39 | 82 | 1007.9 |
| 20260506163216 | 52 | 0 | 0.0 | 0.0 | 0.00 | 0.54 | 0.39 | 82 | 1007.9 |
| 20260506161950 | 52 | 0 | 0.0 | 0.0 | 0.00 | 0.54 | 0.39 | 80 | 1007.9 |
| 20260506161424 | 53 | 0 | 0.0 | 0.0 | 0.00 | 0.54 | 0.39 | 79 | 1007.9 |
| 20260506160159 | 53 | 0 | 0.0 | 0.0 | 0.00 | 0.54 | 0.39 | 80 | 1007.9 |
| 20260506154943 | 53 | 0 | 0.0 | 0.0 | 0.00 | 0.54 | 0.39 | 80 | 1007.8 |
| 20260506154100 | 53 | 0 | 0.0 | 0.0 | 0.00 | 0.54 | 0.39 | 81 | 1007.8 |
| 20260506153500 | 53 | 0 | 0.0 | 0.0 | 0.00 | 0.54 | 0.39 | 81 | 1007.8 |
| 20260506152410 | 53 | 0 | 0.0 | 0.0 | 0.00 | 0.54 | 0.39 | 80 | 1007.7 |
| 20260506151744 | 54 | 0 | 0.0 | 0.0 | 0.00 | 0.54 | 0.39 | 81 | 1007.6 |
| 20260506145908 | 54 | 0 | 0.0 | 0.0 | 0.00 | 0.54 | 0.39 | 83 | 1007.6 |
| 20260506144642 | 53 | 0 | 0.0 | 0.0 | 0.00 | 0.54 | 0.39 | 86 | 1007.7 |
| 20260506143931 | 53 | 0 | 0.0 | 0.0 | 0.00 | 0.54 | 0.39 | 86 | 1007.6 |
| 20260506143158 | 53 | 0 | 0.0 | 0.0 | 0.00 | 0.54 | 0.39 | 87 | 1007.7 |
| 20260506142116 | 53 | 0 | 0.0 | 0.0 | 0.00 | 0.54 | 0.39 | 87 | 1007.8 |
| 20260506141110 | 53 | 0 | 0.0 | 0.0 | 0.00 | 0.54 | 0.39 | 87 | 1007.8 |
| 20260506135209 | 52 | 0 | 0.0 | 0.0 | 0.00 | 0.54 | 0.39 | 88 | 1007.9 |
| 20260506134644 | 52 | 0 | 0.0 | 0.0 | 0.00 | 0.54 | 0.39 | 88 | 1007.9 |
| 20260506131538 | 51 | 0 | 0.0 | 0.0 | 0.00 | 0.54 | 0.39 | 90 | 1007.9 |
| 20260506130903 | 51 | 0 | 0.0 | 0.0 | 0.00 | 0.54 | 0.39 | 88 | 1007.8 |
| 20260506130117 | 51 | 0 | 0.0 | 0.0 | 0.00 | 0.54 | 0.39 | 86 | 1007.7 |
| 20260506125551 | 51 | 0 | 0.0 | 0.0 | 0.00 | 0.54 | 0.39 | 86 | 1007.7 |
| 20260506122154 | 52 | 0 | 0.0 | 0.0 | 0.00 | 0.54 | 0.39 | 89 | 1007.5 |
| 20260506120558 | 51 | 0 | 0.0 | 0.0 | 0.00 | 0.54 | 0.39 | 91 | 1007.4 |
| 20260506113517 | 50 | 0 | 0.0 | 0.0 | 0.00 | 0.54 | 0.39 | 94 | 1007.4 |
| 20260506112806 | 50 | 0 | 0.0 | 0.0 | 0.01 | 0.54 | 0.39 | 94 | 1007.4 |
| 20260506110932 | 49 | 0 | 0.0 | 0.0 | 0.01 | 0.54 | 0.39 | 96 | 1007.5 |
| 20260506105411 | 49 | 0 | 0.0 | 0.0 | 0.01 | 0.54 | 0.39 | 98 | 1007.6 |
| 20260506104810 | 49 | 0 | 0.0 | 0.0 | 0.01 | 0.54 | 0.39 | 97 | 1007.6 |
| 20260506102932 | 48 | 0 | 0.0 | 0.0 | 0.02 | 0.54 | 0.39 | 98 | 1007.7 |
| 20260506102431 | 48 | 0 | 0.0 | 0.0 | 0.02 | 0.54 | 0.39 | 98 | 1007.6 |
| 20260506101907 | 48 | 0 | 0.0 | 0.0 | 0.02 | 0.54 | 0.38 | 99 | 1007.6 |
| 20260506095831 | 47 | 0 | 0.0 | 0.0 | 0.02 | 0.54 | 0.38 | 99 | 1007.4 |
| 20260506094520 | 47 | 0 | 0.0 | 0.0 | 0.02 | 0.54 | 0.38 | 99 | 1007.3 |
| 20260506093108 | 47 | 0 | 0.0 | 0.0 | 0.02 | 0.54 | 0.38 | 99 | 1007.2 |
| 20260506092507 | 47 | 0 | 0.0 | 0.0 | 0.02 | 0.54 | 0.38 | 10 | 1007.1 |
| 20260506091645 | 47 | 0 | 0.0 | 0.0 | 0.02 | 0.53 | 0.37 | 10 | 1007.0 |
| 20260506090530 | 47 | 0 | 0.0 | 0.0 | 0.02 | 0.53 | 0.37 | 10 | 1007.0 |
| 20260506090057 | 47 | 0 | 0.0 | 0.0 | 0.02 | 0.52 | 0.36 | 10 | 1007.0 |
| 20260506084827 | 47 | 0 | 0.0 | 0.0 | 0.02 | 0.52 | 0.36 | 10 | 1006.8 |
| 20260506070837 | 46 | 0 | 0.0 | 0.0 | 0.03 | 0.50 | 0.35 | 10 | 1006.3 |
| 20260506070226 | 46 | 0 | 0.0 | 0.0 | 0.03 | 0.50 | 0.35 | 10 | 1006.2 |
| 20260506061944 | 45 | 0 | 0.0 | 0.0 | 0.05 | 0.50 | 0.33 | 10 | 1006.1 |
| 20260506061057 | 45 | 0 | 0.0 | 0.0 | 0.05 | 0.50 | 0.33 | 10 | 1006.1 |
| 20260506051323 | 45 | 0 | 0.0 | 0.0 | 0.07 | 0.48 | 0.30 | 10 | 1006.1 |
| 20260506050645 | 45 | 0 | 0.0 | 0.0 | 0.07 | 0.47 | 0.29 | 10 | 1006.1 |
| 20260506050120 | 45 | 0 | 0.0 | 0.0 | 0.06 | 0.46 | 0.28 | 10 | 1006.0 |
| 20260506045113 | 45 | 0 | 0.0 | 0.0 | 0.06 | 0.49 | 0.28 | 10 | 1006.0 |
| 20260506044613 | 45 | 0 | 0.0 | 0.0 | 0.05 | 0.50 | 0.27 | 10 | 1006.0 |
| 20260506043750 | 45 | 0 | 0.0 | 0.0 | 0.04 | 0.51 | 0.26 | 10 | 1006.0 |
| 20260506042414 | 45 | 0 | 0.0 | 0.0 | 0.04 | 0.55 | 0.25 | 10 | 1005.9 |
| 20260506041102 | 46 | 0 | 0.0 | 0.0 | 0.03 | 0.59 | 0.24 | 10 | 1005.8 |
| 20260506040537 | 46 | 0 | 0.0 | 0.0 | 0.03 | 0.61 | 0.24 | 10 | 1005.8 |
| 20260506035510 | 46 | 0 | 0.0 | 0.0 | 0.03 | 0.62 | 0.23 | 10 | 1005.9 |
| 20260506033655 | 46 | 0 | 0.0 | 0.0 | 0.03 | 0.64 | 0.22 | 10 | 1005.9 |
| 20260506033128 | 46 | 0 | 0.0 | 0.0 | 0.03 | 0.64 | 0.22 | 10 | 1005.9 |
| 20260506032233 | 46 | 0 | 0.0 | 0.0 | 0.03 | 0.65 | 0.22 | 10 | 1005.9 |
| 20260506031117 | 46 | 0 | 0.0 | 0.0 | 0.03 | 0.64 | 0.21 | 10 | 1005.9 |
| 20260506023731 | 47 | 0 | 0.0 | 0.0 | 0.03 | 0.62 | 0.20 | 10 | 1006.0 |
| 20260506021413 | 47 | 0 | 0.0 | 0.0 | 0.05 | 0.61 | 0.19 | 10 | 1006.1 |
| 20260506020637 | 47 | 0 | 0.0 | 0.0 | 0.04 | 0.61 | 0.18 | 10 | 1006.1 |
| 20260506015058 | 47 | 0 | 0.0 | 0.0 | 0.04 | 0.61 | 0.18 | 10 | 1006.1 |
| 20260506014406 | 47 | 0 | 0.0 | 0.0 | 0.05 | 0.61 | 0.18 | 10 | 1006.1 |
| 20260506013630 | 47 | 0 | 0.0 | 0.0 | 0.04 | 0.60 | 0.17 | 10 | 1006.1 |
| 20260506013104 | 47 | 0 | 0.0 | 0.0 | 0.04 | 0.60 | 0.17 | 10 | 1006.2 |
| 20260506011903 | 47 | 0 | 0.0 | 0.0 | 0.06 | 0.59 | 0.17 | 10 | 1006.2 |
| 20260506011127 | 47 | 0 | 0.0 | 0.0 | 0.06 | 0.59 | 0.17 | 10 | 1006.2 |
| 20260506010516 | 48 | 0 | 0.0 | 0.0 | 0.06 | 0.58 | 0.16 | 10 | 1006.1 |
| 20260506004220 | 48 | 0 | 0.0 | 0.0 | 0.08 | 0.57 | 0.14 | 10 | 1006.3 |
| 20260506003104 | 48 | 0 | 0.0 | 0.0 | 0.07 | 0.56 | 0.13 | 10 | 1006.3 |
| 20260506002234 | 48 | 0 | 0.0 | 0.0 | 0.07 | 0.56 | 0.13 | 10 | 1006.4 |
| 20260506001118 | 48 | 0 | 0.0 | 0.0 | 0.06 | 0.54 | 0.12 | 10 | 1006.4 |
| 20260505235854 | 48 | 0 | 0.0 | 0.0 | 0.06 | 0.54 | 0.11 | 10 | 1006.5 |
| 20260505235228 | 48 | 0 | 0.0 | 0.0 | 0.06 | 0.53 | 0.10 | 10 | 1006.6 |
| 20260505233537 | 48 | 0 | 0.0 | 0.0 | 0.08 | 0.52 | 0.09 | 10 | 1006.6 |
| 20260505230000 | 48 | 0 | 0.0 | 0.0 | 0.07 | 0.49 | 0.06 | 10 | 1006.8 |
| 20260505225349 | 48 | 0 | 0.0 | 0.0 | 0.07 | 0.49 | 0.06 | 10 | 1006.8 |
| 20260505223903 | 48 | 0 | 0.0 | 0.0 | 0.07 | 0.47 | 0.05 | 10 | 1006.9 |
| 20260505223209 | 48 | 0 | 0.0 | 0.0 | 0.06 | 0.46 | 0.03 | 10 | 1006.9 |
| 20260505221056 | 48 | 0 | 0.0 | 0.0 | 0.06 | 0.44 | 0.02 | 10 | 1006.9 |
| 20260505213921 | 48 | 0 | 0.0 | 0.0 | 0.05 | 0.42 | 0.42 | 99 | 1007.1 |
| 20260505211526 | 48 | 0 | 0.0 | 0.0 | 0.04 | 0.40 | 0.40 | 99 | 1007.2 |
| 20260505202237 | 49 | 0 | 0.0 | 0.0 | 0.03 | 0.37 | 0.37 | 10 | 1007.3 |
| 20260505201408 | 49 | 0 | 0.0 | 0.0 | 0.03 | 0.37 | 0.37 | 10 | 1007.3 |
| 20260505200059 | 49 | 0 | 0.0 | 0.0 | 0.02 | 0.36 | 0.36 | 10 | 1007.2 |
| 20260505194914 | 49 | 0 | 0.0 | 0.0 | 0.03 | 0.35 | 0.35 | 10 | 1007.1 |